Weather History for Lincoln, IL

Change the Weather History Date:

Saturday, February 9, 2013

  Actual Average (KSPI) Record (KSPI)
Temperature  
Mean Temperature 34 °F 29 °F  
Max Temperature 38 °F 38 °F 66 °F (1943)
Min Temperature 30 °F 21 °F -21 °F (1899)
Degree Days  
Heating Degree Days 31 36  
Month to date heating degree days 329  
Since 1 July heating degree days 3655  
Cooling Degree Days 0 0  
Month to date cooling degree days 0  
Year to date cooling degree days 0  
Moisture  
Dew Point 28 °F    
Average Humidity 79    
Maximum Humidity 87    
Minimum Humidity 72    
Precipitation  
Precipitation 0.00 in 0.06 in 1.34 in (1966)
Month to date precipitation 0.51  
Year to date precipitation 2.33  
Snow  
Snow 0.00 in 0.20 in 3.60 in (1942)
Month to date snowfall 1.9  
Since 1 July snowfall 14.5  
Snow Depth -    
Sea Level Pressure  
Sea Level Pressure 30.25 in    
Wind  
Wind Speed 8 mph (SSE)    
Max Wind Speed 15 mph    
Max Gust Speed 20 mph    
Visibility 10 miles    
Events      
T = Trace of Precipitation, MM = Missing Value Source: NWS Daily Summary

Daily Weather History Graph

Daily Weather History Graph

Search for Another Location

Airport:

Trip Planner

Search our weather history database for the weather conditions in past years. The results will help you decide how hot, cold, wet, or windy it might be!

Date:

Astronomy

Feb. 09, 2013 Rise Set
Actual Time 6:57 AM CST 5:26 PM CST
Civil Twilight 6:29 AM CST 5:54 PM CST
Nautical Twilight 5:57 AM CST 6:26 PM CST
Astronomical Twilight 5:25 AM CST 6:58 PM CST
Moon 6:09 AM CST (2/9) 5:08 PM CST (2/9)
Length of Visible Light 11h 25m
Length of Day
10h 28m
Waning Crescent, 0% of the Moon is Illuminated
Feb 9
Waning Crescent
Feb 10
New
Feb 17
First Quarter
Feb 25
Full
Mar 4
Last Quarter

Hourly Weather History & Observations

Time (CST) Temp. Windchill Dew Point Humidity Pressure Visibility Wind Dir Wind Speed Gust Speed Precip Events Conditions
12:15 AM 30.9 °F 25.2 °F 25.2 °F 79% 30.38 in 10.0 mi SSE 5.8 mph - N/A   Overcast
12:35 AM 30.9 °F 26.2 °F 25.7 °F 81% 30.37 in 10.0 mi ESE 4.6 mph - N/A   Overcast
12:55 AM 30.9 °F 25.2 °F 25.2 °F 79% 30.37 in 10.0 mi SE 5.8 mph - N/A   Overcast
1:15 AM 30.9 °F 27.5 °F 25.3 °F 80% 30.36 in 10.0 mi SE 3.5 mph - N/A   Overcast
1:35 AM 30.9 °F 26.2 °F 25.2 °F 79% 30.37 in 10.0 mi ESE 4.6 mph - N/A   Overcast
1:55 AM 31.1 °F 27.7 °F 25.2 °F 79% 30.37 in 10.0 mi ESE 3.5 mph - N/A   Overcast
2:15 AM 31.1 °F 25.4 °F 25.0 °F 78% 30.37 in 10.0 mi SE 5.8 mph - N/A   Overcast
2:35 AM 30.9 °F 26.2 °F 24.3 °F 76% 30.36 in 10.0 mi SE 4.6 mph - N/A   Overcast
2:55 AM 31.1 °F 24.5 °F 24.8 °F 77% 30.36 in 10.0 mi SSE 6.9 mph - N/A   Overcast
3:15 AM 31.1 °F 24.5 °F 25.3 °F 79% 30.36 in 10.0 mi SE 6.9 mph - N/A   Overcast
3:35 AM 31.1 °F 24.5 °F 25.0 °F 78% 30.37 in 10.0 mi SSE 6.9 mph - N/A   Overcast
3:55 AM 31.3 °F 25.6 °F 25.3 °F 79% 30.37 in 10.0 mi SE 5.8 mph - N/A   Overcast
4:15 AM 31.5 °F 26.8 °F 25.9 °F 80% 30.37 in 10.0 mi South 4.6 mph - N/A   Overcast
4:35 AM 31.3 °F 24.7 °F 25.5 °F 79% 30.36 in 10.0 mi South 6.9 mph - N/A   Overcast
4:55 AM 31.5 °F 25.8 °F 25.7 °F 79% 30.36 in 10.0 mi SSE 5.8 mph - N/A   Overcast
5:15 AM 31.5 °F 24.2 °F 25.3 °F 78% 30.36 in 10.0 mi SSE 8.1 mph - N/A   Overcast
5:35 AM 31.5 °F 24.2 °F 25.3 °F 78% 30.35 in 10.0 mi SE 8.1 mph - N/A   Overcast
5:55 AM 31.1 °F 23.1 °F 24.8 °F 77% 30.36 in 10.0 mi SE 9.2 mph - N/A   Overcast
6:15 AM 31.1 °F 22.4 °F 24.8 °F 77% 30.35 in 10.0 mi SE 10.4 mph - N/A   Overcast
6:35 AM 31.1 °F 23.7 °F 24.8 °F 77% 30.35 in 10.0 mi SSE 8.1 mph - N/A   Overcast
6:55 AM 31.1 °F 21.9 °F 25.3 °F 79% 30.35 in 10.0 mi SSE 11.5 mph 16.1 mph N/A   Overcast
7:15 AM 31.3 °F 22.1 °F 25.0 °F 77% 30.35 in 10.0 mi SE 11.5 mph - N/A   Overcast
7:35 AM 31.5 °F 23.5 °F 25.2 °F 78% 30.36 in 10.0 mi SE 9.2 mph - N/A   Overcast
7:55 AM 31.5 °F 22.3 °F 25.3 °F 78% 30.36 in 10.0 mi SE 11.5 mph - N/A   Overcast
8:15 AM 31.8 °F 23.3 °F 25.7 °F 78% 30.36 in 10.0 mi South 10.4 mph - N/A   Overcast
8:35 AM 31.6 °F 24.4 °F 25.5 °F 78% 30.36 in 10.0 mi SE 8.1 mph - N/A   Overcast
8:55 AM 32.0 °F 23.0 °F 25.7 °F 78% 30.35 in 10.0 mi SE 11.5 mph - N/A   Overcast
9:15 AM 32.0 °F 23.6 °F 25.7 °F 78% 30.35 in 10.0 mi SSE 10.4 mph - N/A   Overcast
9:35 AM 32.0 °F 23.6 °F 25.7 °F 78% 30.36 in 10.0 mi SSE 10.4 mph - N/A   Overcast
9:55 AM 32.0 °F 24.8 °F 25.9 °F 78% 30.36 in 10.0 mi SSE 8.1 mph - N/A   Overcast
10:15 AM 32.0 °F 23.0 °F 26.2 °F 79% 30.34 in 10.0 mi SSE 11.5 mph - N/A   Overcast
10:35 AM 32.4 °F 24.6 °F 26.2 °F 78% 30.34 in 10.0 mi SSE 9.2 mph - N/A   Overcast
10:55 AM 32.9 °F 24.7 °F 26.4 °F 77% 30.33 in 10.0 mi SSE 10.4 mph - N/A   Overcast
11:15 AM 33.4 °F 23.9 °F 26.8 °F 77% 30.32 in 10.0 mi SSE 13.8 mph 19.6 mph N/A   Overcast
11:35 AM 33.6 °F 24.6 °F 27.0 °F 77% 30.31 in 10.0 mi SSE 12.7 mph - N/A   Overcast
11:55 AM 33.8 °F 26.4 °F 27.3 °F 77% 30.30 in 10.0 mi SSE 9.2 mph - N/A   Overcast
12:15 PM 33.8 °F 25.3 °F 27.3 °F 77% 30.30 in 10.0 mi SSE 11.5 mph 18.4 mph N/A   Overcast
12:35 PM 34.0 °F 26.0 °F 27.0 °F 75% 30.29 in 10.0 mi South 10.4 mph - N/A   Overcast
12:55 PM 34.7 °F 26.4 °F 26.8 °F 73% 30.29 in 10.0 mi South 11.5 mph - N/A   Overcast
1:15 PM 34.5 °F 25.7 °F 27.5 °F 76% 30.27 in 10.0 mi South 12.7 mph - N/A   Mostly Cloudy
1:35 PM 34.9 °F 26.6 °F 27.9 °F 76% 30.26 in 10.0 mi South 11.5 mph 17.3 mph N/A   Mostly Cloudy
1:55 PM 36.1 °F 28.2 °F 27.9 °F 72% 30.24 in 10.0 mi SSE 11.5 mph 18.4 mph N/A   Mostly Cloudy
2:15 PM 36.1 °F 28.2 °F 28.6 °F 74% 30.22 in 10.0 mi SE 11.5 mph - N/A   Mostly Cloudy
2:35 PM 36.1 °F 26.9 °F 29.1 °F 76% 30.22 in 10.0 mi SSE 15.0 mph - N/A   Scattered Clouds
2:55 PM 36.7 °F 29.9 °F 29.1 °F 74% 30.21 in 10.0 mi SSE 9.2 mph 17.3 mph N/A   Clear
3:15 PM 37.6 °F 29.6 °F 29.7 °F 73% 30.20 in 10.0 mi SSE 12.7 mph 18.4 mph N/A   Clear
3:35 PM 37.9 °F 30.9 °F 30.4 °F 74% 30.18 in 10.0 mi SSE 10.4 mph - N/A   Clear
3:55 PM 38.3 °F 30.5 °F 31.1 °F 75% 30.17 in 10.0 mi SE 12.7 mph - N/A   Clear
4:15 PM 38.3 °F 32.5 °F 31.1 °F 75% 30.17 in 10.0 mi SE 8.1 mph - N/A   Clear
4:35 PM 37.8 °F 32.5 °F 31.6 °F 79% 30.16 in 10.0 mi SE 6.9 mph - N/A   Clear
4:55 PM 36.9 °F 31.4 °F 31.5 °F 81% 30.15 in 10.0 mi SE 6.9 mph - N/A   Clear
5:15 PM 36.7 °F 29.9 °F 31.1 °F 80% 30.15 in 10.0 mi SE 9.2 mph - N/A   Scattered Clouds
5:35 PM 36.1 °F 29.9 °F 31.1 °F 82% 30.13 in 10.0 mi SE 8.1 mph - N/A   Clear
5:55 PM 34.9 °F 29.9 °F 31.5 °F 87% 30.13 in 10.0 mi SE 5.8 mph - N/A   Clear
6:15 PM 35.6 °F 28.6 °F 31.8 °F 86% 30.13 in 10.0 mi SE 9.2 mph - N/A   Clear
6:35 PM 36.0 °F 29.6 °F 31.8 °F 85% 30.13 in 10.0 mi SE 8.1 mph - N/A   Clear
6:55 PM 36.0 °F 29.6 °F 31.6 °F 84% 30.12 in 10.0 mi SE 8.1 mph - N/A   Clear
7:15 PM 35.6 °F 29.2 °F 32.0 °F 87% 30.11 in 10.0 mi SSE 8.1 mph - N/A   Clear
7:35 PM 36.1 °F 28.7 °F 31.8 °F 84% 30.11 in 10.0 mi SSE 10.4 mph - N/A   Clear
7:55 PM 35.8 °F 28.3 °F 31.8 °F 86% 30.11 in 10.0 mi SSE 10.4 mph - N/A   Clear
8:15 PM 35.8 °F 28.3 °F 31.6 °F 85% 30.11 in 10.0 mi SSE 10.4 mph - N/A   Clear
8:35 PM 35.6 °F 28.6 °F 31.6 °F 85% 30.11 in 10.0 mi SSE 9.2 mph - N/A   Clear
8:55 PM 35.6 °F 30.7 °F 31.8 °F 86% 30.09 in 10.0 mi SSE 5.8 mph - N/A   Clear
9:15 PM 35.8 °F 29.4 °F 31.8 °F 86% 30.09 in 10.0 mi SE 8.1 mph - N/A   Clear
9:35 PM 35.8 °F 28.8 °F 31.8 °F 86% 30.09 in 10.0 mi SSE 9.2 mph - N/A   Clear
9:55 PM 36.0 °F 28.0 °F 31.8 °F 85% 30.07 in 10.0 mi SSE 11.5 mph - N/A   Clear
10:15 PM 36.0 °F 28.5 °F 31.8 °F 85% 30.06 in 10.0 mi SSE 10.4 mph - N/A   Clear
10:35 PM 36.0 °F 28.5 °F 32.0 °F 86% 30.05 in 10.0 mi SSE 10.4 mph - N/A   Clear
10:55 PM 36.1 °F 28.7 °F 31.8 °F 84% 30.05 in 10.0 mi SSE 10.4 mph - N/A   Clear
11:15 PM 36.5 °F 29.7 °F 32.0 °F 84% 30.04 in 10.0 mi SSE 9.2 mph - N/A   Scattered Clouds
11:35 PM 37.2 °F 30.6 °F 31.8 °F 81% 30.05 in 10.0 mi SSE 9.2 mph - N/A   Mostly Cloudy
11:55 PM 37.4 °F 31.4 °F 31.8 °F 80% 30.05 in 10.0 mi SSE 8.1 mph - N/A   Overcast